Valley City, ND

10:54 AM CST on November 18, 2019 (GMT -0600)
Valley City

Weather History for KBAC - August, 2019

Change the Weather History Date:

Wednesday, August 7, 2019

  Actual Average (KJMS) Record (KJMS)
Temperature  
Mean Temperature 63 °F -  
Max Temperature 71 °F 84 °F 103 °F (1983)
Min Temperature 53 °F 57 °F 40 °F (1921)
Degree Days  
Heating Degree Days 2    
Growing Degree Days 13 (Base 50)    
Moisture  
Dew Point 59 °F    
Average Humidity 82    
Maximum Humidity 100    
Minimum Humidity 46    
Precipitation  
Precipitation 0.00 in - - ()
Sea Level Pressure  
Sea Level Pressure 29.90 in    
Wind  
Wind Speed 10 mph (NW)    
Max Wind Speed 18 mph    
Max Gust Speed 24 mph    
Visibility 10 miles    
Events      
Averages and records for this station are not official NWS values.
T = Trace of Precipitation, MM = Missing Value Source: NWS Daily Summary

Daily Weather History Graph

Daily Weather History Graph

Search for Another Location

Airport or City:

Astronomy

Aug. 07, 2019 Rise Set
Actual Time 6:18 AM CDT 8:55 PM CDT
Civil Twilight 5:44 AM CDT 9:30 PM CDT
Nautical Twilight 5:00 AM CDT 10:13 PM CDT
Astronomical Twilight 4:09 AM CDT 11:03 PM CDT
Moon 2:21 PM CDT (8/7) 12:17 AM CDT (8/7)
Length of Visible Light 15h 45m
Length of Day
14h 36m
Waxing Crescent, 50% of the Moon is Illuminated
Aug 7
Waxing Crescent
Aug 7
First Quarter
Aug 15
Full
Aug 23
Last Quarter
Aug 30
New

Hourly Weather History & Observations

Time (CDT) Temp. Dew Point Humidity Pressure Visibility Wind Dir Wind Speed Gust Speed Precip Events Conditions
12:15 AM 68.0 °F 64.4 °F 88% 29.81 in 10.0 mi WNW 9.2 mph - N/A   Partly Cloudy
12:35 AM 66.2 °F 64.4 °F 94% 29.81 in 10.0 mi NW 6.9 mph - N/A   Clear
12:55 AM 64.4 °F 64.4 °F 100% 29.82 in 10.0 mi NNW 8.1 mph - N/A   Clear
1:15 AM 64.4 °F 64.4 °F 100% 29.81 in 10.0 mi NW 5.8 mph - N/A   Clear
1:35 AM 64.4 °F 64.4 °F 100% 29.82 in 10.0 mi WNW 8.1 mph - N/A   Clear
1:55 AM 64.4 °F 64.4 °F 100% 29.82 in 10.0 mi WNW 9.2 mph - N/A   Clear
2:15 AM 64.4 °F 64.4 °F 100% 29.82 in 10.0 mi NW 9.2 mph - N/A   Clear
2:35 AM 64.4 °F 64.4 °F 100% 29.82 in 10.0 mi NW 9.2 mph - N/A   Clear
2:55 AM 64.4 °F 64.4 °F 100% 29.82 in 10.0 mi NW 9.2 mph - N/A   Clear
3:15 AM 64.4 °F 64.4 °F 100% 29.82 in 10.0 mi NW 9.2 mph - N/A   Clear
3:35 AM 62.6 °F 62.6 °F 100% 29.82 in 10.0 mi NW 8.1 mph - N/A   Clear
3:55 AM 62.6 °F 62.6 °F 100% 29.82 in 10.0 mi NW 8.1 mph - N/A   Clear
4:15 AM 62.6 °F 62.6 °F 100% 29.83 in 10.0 mi NW 8.1 mph - N/A   Clear
4:35 AM 62.6 °F 62.6 °F 100% 29.83 in 10.0 mi NNW 8.1 mph - N/A   Clear
4:55 AM 60.8 °F 60.8 °F 100% 29.83 in 10.0 mi NW 8.1 mph - N/A   Clear
5:15 AM 60.8 °F 60.8 °F 100% 29.84 in 10.0 mi NW 8.1 mph - N/A   Clear
5:35 AM 62.6 °F 62.6 °F 100% 29.85 in 10.0 mi NW 5.8 mph - N/A   Clear
5:55 AM 60.8 °F 60.8 °F 100% 29.85 in 10.0 mi West 5.8 mph - N/A   Clear
6:15 AM 60.8 °F 60.8 °F 100% 29.86 in 10.0 mi NW 6.9 mph - N/A   Clear
6:35 AM 60.8 °F 60.8 °F 100% 29.86 in 10.0 mi NW 6.9 mph - N/A   Clear
6:55 AM 60.8 °F 60.8 °F 100% 29.86 in 10.0 mi NW 9.2 mph - N/A   Clear
7:15 AM 62.6 °F 62.6 °F 100% 29.87 in 10.0 mi NW 6.9 mph - N/A   Clear
7:35 AM 62.6 °F 62.6 °F 100% 29.87 in 10.0 mi NW 10.4 mph - N/A   Clear
7:55 AM 64.4 °F 64.4 °F 100% 29.87 in 10.0 mi NW 9.2 mph - N/A   Clear
8:15 AM 66.2 °F 66.2 °F 100% 29.88 in 10.0 mi NW 11.5 mph - N/A   Partly Cloudy
8:35 AM 66.2 °F 66.2 °F 100% 29.89 in 10.0 mi NNW 13.8 mph - N/A   Mostly Cloudy
8:55 AM 66.2 °F 64.4 °F 94% 29.89 in 10.0 mi NNW 10.4 mph 18.4 mph N/A   Mostly Cloudy
9:15 AM 66.2 °F 64.4 °F 94% 29.89 in 10.0 mi NW 11.5 mph - N/A   Partly Cloudy
9:35 AM 68.0 °F 64.4 °F 88% 29.90 in 10.0 mi NNW 11.5 mph - N/A   Mostly Cloudy
10:15 AM 68.0 °F 66.2 °F 94% 29.91 in 10.0 mi NW 12.7 mph - N/A   Overcast
10:35 AM 68.0 °F 66.2 °F 94% 29.91 in 10.0 mi NW 11.5 mph - N/A   Mostly Cloudy
10:55 AM 68.0 °F 64.4 °F 88% 29.92 in 10.0 mi NNW 12.7 mph - N/A   Overcast
11:15 AM 69.8 °F 62.6 °F 78% 29.92 in 10.0 mi NNW 15.0 mph - N/A   Mostly Cloudy
11:35 AM 71.6 °F 62.6 °F 73% 29.92 in 10.0 mi NW 15.0 mph - N/A   Mostly Cloudy
11:55 AM 69.8 °F 60.8 °F 73% 29.93 in 10.0 mi NW 15.0 mph - N/A   Mostly Cloudy
12:15 PM 69.8 °F 59.0 °F 68% 29.92 in 10.0 mi NNW 16.1 mph - N/A   Mostly Cloudy
12:35 PM 69.8 °F 59.0 °F 68% 29.93 in 10.0 mi NW 11.5 mph 17.3 mph N/A   Scattered Clouds
12:55 PM 69.8 °F 59.0 °F 68% 29.93 in 10.0 mi NW 12.7 mph 24.2 mph N/A   Scattered Clouds
1:15 PM 68.0 °F 57.2 °F 68% 29.93 in 10.0 mi NW 12.7 mph 19.6 mph N/A   Scattered Clouds
1:35 PM 68.0 °F 57.2 °F 68% 29.92 in 10.0 mi NNW 13.8 mph - N/A   Partly Cloudy
1:55 PM 69.8 °F 55.4 °F 60% 29.93 in 10.0 mi NW 13.8 mph - N/A   Partly Cloudy
2:15 PM 71.6 °F 55.4 °F 57% 29.92 in 10.0 mi NNW 16.1 mph - N/A   Clear
2:35 PM 71.6 °F 55.4 °F 57% 29.92 in 10.0 mi NNW 17.3 mph - N/A   Partly Cloudy
2:55 PM 69.8 °F 53.6 °F 56% 29.92 in 10.0 mi WNW 18.4 mph - N/A   Partly Cloudy
3:15 PM 71.6 °F 51.8 °F 50% 29.93 in 10.0 mi NW 17.3 mph - N/A   Clear
3:35 PM 69.8 °F 51.8 °F 53% 29.94 in 10.0 mi NW 16.1 mph - N/A   Partly Cloudy
3:55 PM 69.8 °F 51.8 °F 53% 29.93 in 10.0 mi NW 16.1 mph - N/A   Partly Cloudy
4:15 PM 69.8 °F 53.6 °F 56% 29.94 in 10.0 mi NW 15.0 mph 20.7 mph N/A   Scattered Clouds
4:35 PM 71.6 °F 51.8 °F 50% 29.94 in 10.0 mi NW 16.1 mph 23.0 mph N/A   Mostly Cloudy
4:55 PM 71.6 °F 51.8 °F 50% 29.94 in 10.0 mi WNW 16.1 mph 21.9 mph N/A   Partly Cloudy
5:15 PM 71.6 °F 50.0 °F 46% 29.94 in 10.0 mi NW 15.0 mph - N/A   Clear
5:35 PM 69.8 °F 50.0 °F 49% 29.93 in 10.0 mi NW 16.1 mph 21.9 mph N/A   Clear
5:55 PM 69.8 °F 50.0 °F 49% 29.94 in 10.0 mi NW 16.1 mph - N/A   Clear
6:15 PM 69.8 °F 48.2 °F 46% 29.93 in 10.0 mi WNW 17.3 mph - N/A   Clear
6:35 PM 69.8 °F 50.0 °F 49% 29.93 in 10.0 mi NW 13.8 mph - N/A   Clear
6:55 PM 68.0 °F 50.0 °F 52% 29.93 in 10.0 mi NW 11.5 mph 18.4 mph N/A   Clear
7:15 PM 68.0 °F 50.0 °F 52% 29.93 in 10.0 mi WNW 13.8 mph - N/A   Clear
7:35 PM 66.2 °F 51.8 °F 60% 29.93 in 10.0 mi WNW 10.4 mph - N/A   Clear
7:55 PM 66.2 °F 51.8 °F 60% 29.93 in 10.0 mi WNW 9.2 mph - N/A   Clear
8:15 PM 64.4 °F 51.8 °F 64% 29.93 in 10.0 mi WNW 8.1 mph - N/A   Clear
8:35 PM 62.6 °F 53.6 °F 72% 29.93 in 10.0 mi WNW 5.8 mph - N/A   Clear
8:55 PM 60.8 °F 53.6 °F 77% 29.93 in 10.0 mi WNW 5.8 mph - N/A   Clear
9:15 PM 57.2 °F 55.4 °F 94% 29.93 in 10.0 mi West 8.1 mph - N/A   Clear
9:35 PM 55.4 °F 55.4 °F 100% 29.94 in 10.0 mi West 8.1 mph - N/A   Clear
9:55 PM 55.4 °F 55.4 °F 100% 29.95 in 10.0 mi West 8.1 mph - N/A   Clear
10:15 PM 57.2 °F 57.2 °F 100% 29.95 in 10.0 mi West 8.1 mph - N/A   Clear
10:35 PM 59.0 °F 57.2 °F 94% 29.96 in 10.0 mi West 9.2 mph - N/A   Clear
10:55 PM 57.2 °F 57.2 °F 100% 29.96 in 10.0 mi West 8.1 mph - N/A   Clear
11:15 PM 57.2 °F 55.4 °F 94% 29.96 in 10.0 mi West 8.1 mph - N/A   Clear
11:35 PM 55.4 °F 55.4 °F 100% 29.97 in 10.0 mi WNW 8.1 mph - N/A   Clear
11:55 PM 53.6 °F 53.6 °F 100% 29.97 in 10.0 mi West 8.1 mph - N/A   Clear